Wind_Speed
36 36 40 43 44 44 44 45 44 38 31 29 28 29 32 34 34 34 31 25 18 16 17 17 20 23 25 27 29 30 28 25 24 22 22 21 21 22 23 23 20 17 17 21 24 25 25 26 26 27 27 28 27 27 27 27 28 28 27 27 26 25 26 26 26 27 26 25 23 22 21 19 18 18 18 17 15 15 14 14 14 13 13 13 12 11
37 40 46 47 44 41 41 42 42 39 34 28 23 23 27 31 35 35 33 30 24 21 20 17 19 23 25 27 28 31 32 30 28 26 24 23 23 22 23 23 22 18 17 23 26 26 27 28 28 29 29 30 30 29 29 28 27 27 28 27 26 26 26 26 25 25 24 23 21 19 18 17 18 18 17 16 15 15 15 15 14 14 14 13 12 11
39 46 48 45 42 39 38 40 42 40 37 32 24 21 24 28 32 34 35 32 26 23 23 20 19 22 24 27 29 30 33 33 31 29 26 25 25 24 23 22 22 22 21 23 26 27 28 29 30 30 31 31 30 30 29 28 28 28 28 28 28 28 27 25 24 24 23 21 20 19 18 18 19 19 18 17 17 17 18 16 15 15 15 14 12 11
41 46 48 44 41 39 38 39 41 41 39 37 32 26 26 27 27 31 35 33 27 25 25 21 20 22 22 27 33 32 32 32 31 30 29 29 28 27 24 21 22 24 23 22 25 26 28 30 31 31 31 31 31 31 30 30 29 29 28 28 28 28 27 26 25 23 22 22 22 22 21 21 21 21 21 20 20 20 20 18 16 15 15 14 12 11
45 42 40 43 42 38 38 40 42 42 40 39 38 35 31 28 27 28 28 27 27 27 28 24 20 23 24 25 30 33 34 36 35 34 34 33 31 30 28 26 25 25 24 23 24 25 26 28 29 30 31 31 32 32 31 30 29 28 28 27 28 27 27 26 25 24 24 24 25 24 24 25 25 24 24 24 23 22 21 19 17 15 15 14 13 12
46 40 28 32 42 41 38 41 43 42 39 38 41 41 36 31 27 25 23 21 21 22 25 22 15 21 28 27 27 29 32 35 36 36 36 33 32 33 30 29 28 27 27 25 24 24 24 26 28 30 31 32 32 32 31 30 30 28 27 27 27 28 27 26 26 26 26 26 26 26 26 26 25 26 26 24 22 21 20 18 17 16 15 15 14 12
45 42 25 17 31 41 39 40 43 43 37 37 43 43 38 36 30 25 23 20 18 18 20 19 12 15 26 30 30 29 29 31 32 33 33 32 34 33 30 29 28 28 29 28 26 26 25 25 27 27 29 30 30 30 30 30 30 29 28 28 28 28 27 27 27 28 27 27 26 26 25 24 24 24 23 21 20 20 19 19 18 17 16 15 15 13
42 43 31 15 17 33 41 42 43 43 40 41 45 42 37 37 34 30 27 22 22 23 23 20 14 13 22 31 31 28 28 30 31 33 33 33 34 32 30 30 30 29 30 30 28 28 27 25 25 25 25 26 27 28 30 30 30 30 29 29 28 28 28 27 27 28 28 27 26 26 25 24 23 22 21 20 20 20 21 20 20 18 17 16 16 14
38 42 40 26 16 25 38 44 44 42 43 44 39 33 35 36 33 32 30 28 27 24 26 28 21 11 17 32 34 27 27 29 32 34 34 34 33 31 30 29 29 30 31 32 30 28 26 23 23 23 22 24 27 28 29 29 29 29 30 30 29 29 29 29 28 28 28 27 26 25 25 24 23 22 22 22 22 22 22 22 21 20 18 17 16 15
35 36 38 34 28 27 28 33 41 43 44 43 30 20 27 32 32 30 26 30 28 20 26 34 27 13 13 31 37 30 31 33 34 35 34 33 32 31 31 29 29 31 32 33 32 30 28 24 21 21 23 25 27 28 28 28 29 30 30 31 31 30 30 29 29 28 27 27 26 26 25 24 23 23 24 24 23 23 23 22 22 21 19 18 17 16
35 29 29 36 39 35 25 19 29 38 41 42 33 19 16 20 26 27 24 26 20 16 29 37 31 19 12 27 39 36 39 39 35 34 33 33 33 32 33 32 31 32 33 33 33 32 30 27 23 22 24 25 26 28 29 29 30 31 31 32 32 31 31 30 30 29 28 27 27 26 25 24 24 24 25 25 24 24 24 23 22 21 20 18 17 17
34 28 26 31 36 37 32 23 22 26 32 37 34 25 18 14 18 22 23 23 13 11 29 37 32 25 17 28 41 39 42 41 35 34 33 31 31 31 32 33 33 32 32 33 34 34 33 30 26 24 24 25 26 28 30 30 31 31 32 33 33 33 32 32 31 30 29 28 27 26 25 25 25 25 25 25 24 24 24 23 23 22 20 19 18 17
33 34 29 25 26 31 34 34 30 24 27 34 32 27 21 10 9 13 12 13 10 9 22 27 23 23 25 36 44 41 41 42 38 35 32 29 30 31 31 32 33 31 31 34 35 35 34 30 27 25 24 25 27 28 29 30 31 32 32 33 33 34 33 33 32 31 30 29 27 26 26 26 26 25 25 25 25 24 24 24 24 23 21 20 19 17
27 31 33 29 26 26 30 35 37 32 30 33 34 32 23 9 4 8 6 5 8 10 21 27 18 15 21 34 44 46 43 41 38 33 30 28 30 33 33 33 34 33 32 32 34 35 34 31 28 25 24 24 26 28 28 30 31 32 33 33 34 34 34 33 33 32 31 30 28 26 26 26 26 26 25 25 25 25 25 25 24 23 22 20 19 17
18 19 30 36 31 27 29 32 33 35 34 33 35 35 30 19 10 5 4 4 5 5 16 27 18 7 9 23 39 47 45 40 36 33 30 29 28 29 29 31 36 38 35 33 34 35 34 31 29 26 24 24 26 27 28 29 31 33 33 33 33 34 35 35 33 33 32 30 29 28 27 26 26 26 25 25 26 26 25 24 23 22 21 19 18 16
16 18 26 34 35 29 28 29 28 31 33 33 34 35 35 34 24 9 4 8 6 2 11 23 18 7 7 18 30 39 44 43 38 33 30 30 28 24 24 29 36 41 40 36 35 36 36 34 31 28 25 25 26 28 29 30 31 33 34 33 33 34 35 35 34 33 32 31 30 29 28 27 27 26 26 26 26 26 24 23 21 20 19 19 18 17
10 20 24 27 36 36 28 28 30 30 29 29 33 39 38 37 32 17 8 10 8 5 11 20 21 17 15 21 26 31 38 42 40 36 33 30 29 25 23 27 33 39 41 39 36 35 37 36 33 29 27 26 27 28 29 31 31 32 33 33 33 33 35 35 35 34 32 31 31 31 30 29 28 27 27 26 26 25 23 22 21 20 20 19 18 18
8 19 25 23 30 40 35 30 30 31 29 27 32 40 36 29 29 26 13 7 7 5 7 15 20 19 17 20 26 30 35 39 40 37 34 32 30 28 26 27 31 35 39 39 37 35 37 38 37 33 29 28 27 27 28 30 31 31 33 34 33 33 34 35 35 34 33 32 32 32 31 30 29 28 27 27 26 26 25 23 21 21 20 19 19 18
9 15 24 24 24 34 39 34 28 29 32 29 29 33 30 23 24 28 18 7 7 5 4 8 15 19 22 22 22 27 35 40 40 37 35 33 31 30 30 29 30 32 35 38 38 38 38 38 38 36 32 29 28 27 27 29 30 31 32 34 34 34 34 34 35 35 34 33 33 32 32 31 30 29 28 28 28 28 26 24 22 21 20 19 19 19
4 6 15 24 23 23 33 37 33 30 31 32 30 28 29 27 25 29 26 15 8 4 3 6 7 13 25 29 23 23 30 37 39 38 36 34 32 31 30 30 30 31 33 34 34 35 36 36 36 37 35 32 29 27 27 28 30 32 32 34 34 35 35 35 36 36 35 34 33 33 32 32 31 30 30 30 29 28 26 25 23 22 21 20 20 20
2 2 10 21 23 17 22 33 38 34 31 35 36 29 28 29 24 23 28 28 17 5 2 4 5 10 22 28 27 24 26 33 38 39 38 35 33 30 29 28 29 30 30 29 28 29 30 31 33 36 37 35 32 29 28 28 29 31 33 34 34 34 35 36 36 36 36 35 34 33 33 32 32 31 31 31 30 29 27 26 25 23 22 22 21 21
4 4 10 18 20 18 20 27 34 33 30 34 36 31 30 29 23 15 14 26 30 18 8 4 4 11 17 20 23 23 23 28 34 37 38 37 34 32 30 27 27 28 28 27 27 25 24 26 29 33 37 37 35 32 30 27 27 30 33 34 34 34 35 35 35 35 35 35 35 34 33 33 32 32 32 32 31 30 29 28 27 25 24 24 23 22
6 6 10 19 23 22 24 24 25 27 27 29 28 28 31 30 28 21 11 17 27 25 22 17 11 18 23 16 15 18 19 22 27 31 33 31 29 29 29 28 27 27 27 27 27 25 22 22 25 30 34 36 37 35 31 29 27 28 31 33 35 35 34 33 33 33 34 35 35 34 34 33 33 33 33 32 32 31 30 29 28 27 26 25 24 23
4 5 7 16 23 25 26 22 18 18 19 23 24 24 28 29 30 29 21 19 21 22 24 17 11 28 37 26 17 16 17 20 23 26 29 28 26 24 25 27 27 27 27 26 27 26 23 23 24 28 31 34 38 38 34 30 27 27 29 32 35 35 33 33 32 32 33 34 35 35 35 35 34 34 34 34 33 32 31 30 29 29 27 26 25 24
3 2 5 7 10 15 20 18 16 17 16 18 19 20 25 28 30 30 27 22 19 23 28 16 12 32 40 29 23 19 18 22 23 25 29 31 30 28 27 27 28 28 26 26 27 28 28 27 26 26 27 30 35 38 36 32 28 26 27 30 33 35 34 33 32 32 32 33 34 35 36 36 35 35 35 34 34 32 32 31 30 30 29 27 26 25
7 6 6 3 1 5 10 7 6 10 11 13 15 18 22 24 26 26 23 19 19 26 31 24 24 38 34 23 22 19 18 21 20 21 27 32 35 35 32 30 30 31 30 27 26 29 30 29 27 26 25 26 31 36 37 34 29 26 26 28 30 33 34 34 34 33 32 32 33 34 35 36 36 36 35 35 34 33 33 32 31 31 30 29 28 27
9 10 11 10 10 13 14 12 10 13 14 14 14 18 20 18 18 18 17 21 24 25 29 31 34 41 37 30 29 26 24 22 19 17 19 25 31 32 29 27 28 33 36 33 29 29 31 31 29 27 25 25 28 33 36 35 30 26 26 27 28 30 32 34 34 34 33 32 33 33 35 35 36 36 35 35 34 34 33 33 32 31 30 29 29 28
10 13 15 16 18 19 21 22 18 16 19 20 17 16 18 14 13 16 21 26 25 20 25 34 37 39 43 41 36 33 32 30 27 25 22 23 26 27 28 28 29 32 40 41 37 33 32 32 31 28 24 24 27 31 34 35 32 27 25 26 27 27 27 28 30 31 31 31 31 32 32 33 33 33 34 34 34 34 33 33 32 32 31 30 30 29
10 14 17 17 19 20 22 22 18 17 20 22 20 17 15 14 14 20 26 29 28 24 24 30 36 41 45 42 34 33 32 30 28 27 26 27 28 29 31 33 32 33 42 46 44 40 36 33 32 29 24 24 27 29 31 33 33 28 25 26 28 27 24 24 24 25 26 27 28 27 28 28 30 31 31 32 33 34 33 33 32 32 31 31 30 29
10 13 14 16 20 22 21 17 14 16 19 22 20 15 15 17 18 21 26 30 33 31 27 28 35 43 45 41 37 35 33 30 27 25 24 23 25 27 29 31 32 37 44 48 48 44 40 37 35 31 25 23 26 27 29 31 32 29 27 27 29 28 25 24 22 21 21 21 22 22 23 25 26 28 29 31 31 32 32 32 32 32 31 31 30 29
11 12 10 13 20 22 18 13 10 12 17 20 18 13 14 19 18 18 22 28 31 34 35 36 37 41 44 43 41 38 34 30 27 24 22 21 23 26 27 28 30 35 41 45 47 46 44 40 37 33 28 24 25 26 28 30 30 29 27 28 30 29 27 26 24 23 21 19 18 19 20 22 24 25 27 28 28 29 29 30 30 31 31 30 30 30
14 14 12 12 17 19 15 11 10 12 15 18 17 13 12 14 15 16 19 24 29 33 40 43 42 42 43 42 42 41 36 32 28 24 22 22 23 22 21 22 25 29 32 37 42 44 42 39 36 33 29 26 25 27 29 29 30 30 29 30 30 30 29 28 26 26 25 23 21 20 19 20 21 22 24 25 25 26 27 28 29 29 30 30 30 30
13 14 14 11 13 16 13 9 9 10 10 13 15 13 10 7 10 12 15 22 28 31 37 44 45 45 44 42 43 42 39 35 32 29 26 23 19 16 15 16 19 22 24 26 32 35 34 33 34 32 29 27 27 28 29 29 30 30 29 30 31 31 30 29 28 27 27 27 26 24 23 22 21 21 22 22 23 23 25 26 27 28 28 29 29 29
13 13 13 9 8 13 14 9 6 6 7 9 11 10 8 7 10 12 11 16 24 30 37 43 44 44 44 42 41 41 41 38 34 32 28 21 15 15 15 14 16 18 21 23 25 28 29 30 31 29 28 28 28 28 28 29 29 29 29 29 28 30 31 30 29 29 28 28 29 28 28 27 25 24 23 22 22 23 23 24 25 26 26 27 28 28
15 13 12 10 10 13 14 8 3 4 9 16 13 7 7 7 9 11 10 11 21 30 36 40 41 42 42 39 37 38 39 37 33 31 26 18 13 17 16 13 14 15 20 24 25 28 30 28 27 29 29 29 28 28 29 29 30 29 28 25 24 26 28 28 28 28 28 29 30 30 31 31 29 28 26 25 24 24 24 24 24 24 24 24 25 26
17 13 11 11 11 10 8 6 4 6 13 19 15 8 9 8 6 10 10 8 18 28 33 38 40 41 40 38 37 38 38 35 33 31 25 18 15 20 17 13 14 15 19 24 27 30 29 27 28 31 30 28 28 28 29 29 29 29 26 24 23 23 22 22 23 23 24 27 29 30 31 32 31 31 30 29 28 26 25 25 24 23 23 23 23 23
18 15 13 12 11 9 7 9 8 7 11 16 14 10 12 10 8 8 7 3 11 22 29 35 38 38 37 36 35 36 37 36 32 30 26 20 16 21 19 14 14 15 18 23 27 29 29 30 32 33 30 28 28 27 28 29 29 29 26 24 23 21 20 20 20 21 23 25 26 28 29 30 31 32 31 31 30 29 27 26 25 24 23 23 23 23
19 16 13 10 10 8 7 8 6 4 7 13 14 12 11 10 10 8 6 5 4 16 23 29 33 34 33 32 32 33 35 33 30 27 25 22 18 20 20 17 16 16 18 22 25 29 32 34 35 34 31 30 29 27 27 28 29 29 26 24 22 21 21 20 20 20 20 21 23 24 26 27 29 30 31 32 32 31 30 29 27 26 25 24 24 23
19 16 12 11 11 9 6 5 4 3 6 13 16 12 7 9 10 11 6 6 3 11 17 22 26 27 28 28 29 30 31 30 28 27 24 21 20 20 19 20 20 18 19 23 24 28 34 36 35 33 32 31 30 28 27 28 29 28 26 23 21 21 22 21 20 18 18 17 18 20 22 24 26 27 29 31 31 31 31 31 30 29 28 27 26 26
19 16 14 15 15 11 8 7 7 4 5 11 14 9 3 7 12 13 5 4 8 10 12 14 16 18 22 26 27 28 29 29 28 27 25 22 22 21 20 22 23 21 21 25 26 29 33 35 34 32 31 30 28 28 28 29 29 29 26 23 22 22 22 21 18 17 16 15 16 17 19 22 24 25 27 28 29 30 31 31 31 31 31 31 30 29
21 16 17 18 14 10 10 10 8 5 4 8 12 8 6 12 16 11 3 4 13 16 15 14 13 13 18 23 26 26 27 28 28 28 26 24 23 23 22 23 24 23 24 27 28 30 33 35 35 32 29 28 27 27 29 30 30 29 27 24 24 24 22 20 19 18 16 15 15 16 17 20 21 23 24 25 26 28 29 30 31 32 32 33 32 32
19 14 14 15 10 7 10 10 7 4 4 7 10 10 13 18 16 10 6 8 18 23 23 21 20 17 16 19 21 23 26 29 29 27 26 25 25 26 25 25 25 26 27 28 30 31 33 34 35 33 30 28 27 26 27 29 29 28 26 26 26 25 23 21 20 17 14 13 13 14 16 19 21 22 23 23 25 26 27 28 29 30 31 32 33 34
16 13 10 10 6 4 7 7 3 2 3 6 8 12 17 18 15 14 11 12 20 28 30 28 28 26 22 21 22 23 25 28 28 27 27 27 27 27 27 27 27 28 29 29 29 30 32 33 33 33 31 29 28 26 26 28 27 25 24 24 24 23 22 21 19 16 15 13 12 13 14 16 19 21 22 23 24 25 25 26 27 28 29 30 31 32
12 10 8 7 5 3 4 4 1 2 1 2 5 11 17 17 16 16 12 16 24 29 32 33 34 32 30 29 27 26 26 26 26 26 26 26 26 26 27 28 28 29 29 29 28 28 29 29 29 30 31 30 28 26 26 26 25 24 23 23 23 22 21 19 17 16 16 14 13 13 13 14 14 16 18 20 21 22 22 24 25 26 27 27 28 29
8 6 8 9 5 3 4 4 2 1 2 2 6 12 17 18 17 15 12 18 25 28 30 33 34 33 33 32 31 30 29 27 27 26 25 24 24 23 24 26 28 28 28 28 28 27 26 26 25 26 27 28 28 26 26 25 24 22 22 22 22 22 21 20 19 18 17 17 16 16 15 14 13 14 14 15 16 17 19 20 22 23 23 24 24 24
8 6 9 8 4 3 5 4 3 4 3 4 6 11 16 19 16 12 11 18 23 25 28 31 32 31 30 30 33 33 30 28 29 28 26 26 25 24 24 24 25 26 27 27 27 26 25 25 24 23 24 26 27 27 25 25 24 23 23 23 22 22 21 21 21 20 19 19 18 18 17 15 15 15 15 15 15 15 16 17 18 19 20 20 20 20
6 5 8 6 4 6 7 5 4 5 4 5 6 6 11 15 13 9 7 14 19 21 25 28 30 29 28 28 32 34 30 28 30 30 29 28 27 27 26 25 25 25 25 26 27 27 27 26 25 24 24 25 26 26 25 24 24 24 23 23 22 21 20 20 19 19 19 19 18 19 18 17 17 17 17 17 17 17 18 18 17 17 18 18 18 18
8 3 3 5 5 9 9 7 7 8 8 5 5 5 6 10 12 9 5 8 15 18 21 25 27 27 28 29 31 32 31 31 31 31 30 29 29 29 29 28 28 27 27 27 28 29 29 29 28 27 27 26 27 26 25 25 24 24 23 22 21 20 19 19 18 19 19 20 20 21 21 21 21 21 20 19 19 20 20 20 19 19 18 18 19 19
11 6 3 4 7 9 9 9 8 9 11 8 4 3 5 5 10 13 10 4 8 13 16 19 22 25 28 30 29 29 30 31 31 31 30 29 29 30 30 30 31 30 30 30 29 29 30 30 30 30 29 28 27 26 25 24 23 22 22 21 20 20 20 20 21 21 21 22 23 23 24 25 25 25 25 24 23 23 23 22 22 21 20 20 21 21
12 10 9 8 8 8 8 9 10 12 14 12 7 4 4 5 7 16 16 9 3 6 10 12 17 21 23 25 27 27 28 29 30 30 29 29 29 30 31 32 32 32 32 32 31 30 30 30 31 31 30 29 28 26 25 24 23 22 22 21 22 23 23 24 24 25 26 27 28 28 29 30 30 30 29 29 27 27 26 25 24 24 23 23 22 22
13 12 12 13 11 8 7 9 12 16 17 15 13 11 7 7 7 12 18 13 9 4 5 7 10 13 16 19 22 25 26 28 28 28 27 27 27 28 30 31 32 32 32 33 32 32 31 30 30 31 31 30 29 28 27 26 25 24 24 24 24 24 24 25 26 26 27 29 30 31 31 30 30 30 30 30 29 29 29 28 27 26 26 25 25 24
Wind_Direction
204 207 210 213 213 210 207 207 209 211 209 210 214 217 220 222 223 220 218 217 218 236 247 249 257 255 252 250 247 246 245 242 242 244 245 242 241 240 240 242 239 233 225 215 208 203 201 199 198 198 199 200 200 200 201 202 201 200 199 199 199 198 198 198 198 198 198 199 202 205 207 206 203 205 209 212 214 216 217 214 211 209 207 210 214 214
207 212 216 217 215 211 210 209 211 213 210 208 211 217 221 225 225 221 221 225 227 238 245 250 262 259 253 252 249 245 242 241 242 246 248 246 244 242 240 240 240 237 224 214 209 205 202 201 200 199 200 201 202 201 201 202 202 202 200 199 199 200 201 200 199 200 199 200 203 208 209 209 207 208 212 214 216 219 221 218 212 212 213 212 214 215
209 217 221 220 217 214 212 212 212 214 215 212 209 215 221 224 227 224 223 228 231 236 242 248 259 258 253 252 250 247 245 245 247 252 256 255 251 247 241 238 236 234 226 216 209 206 205 203 202 202 201 202 204 203 203 202 202 203 202 200 199 201 201 200 201 201 200 199 201 205 208 209 210 211 212 212 214 218 221 221 215 212 216 217 215 213
210 220 224 220 217 217 215 213 213 216 219 218 217 219 220 220 225 226 224 229 233 233 239 249 258 257 253 249 247 248 249 250 252 256 260 262 259 255 251 245 237 234 232 223 212 207 207 205 205 206 204 203 203 204 204 204 203 203 202 201 201 201 201 201 202 201 200 200 201 203 205 208 209 210 211 210 212 215 217 220 218 212 215 220 218 211
214 220 225 221 217 218 217 214 213 217 221 222 221 222 222 218 220 225 226 231 235 234 238 247 257 256 248 243 244 246 248 249 252 254 255 257 258 257 254 248 242 238 238 233 221 211 209 210 209 209 207 205 204 205 204 204 205 204 202 201 202 201 201 201 201 201 202 202 201 202 204 207 208 208 210 211 211 213 215 219 219 214 214 219 219 213
218 219 226 227 220 217 218 217 215 216 222 226 225 222 222 221 221 227 228 232 239 238 238 240 248 253 246 242 243 245 246 248 249 250 251 252 253 253 250 246 242 238 237 237 229 220 214 213 212 211 210 208 207 206 205 206 205 205 204 202 202 201 201 201 201 202 204 204 203 203 205 209 210 211 213 213 212 213 216 219 221 217 214 217 219 215
220 218 222 229 223 220 218 219 218 216 221 228 227 222 223 226 228 232 232 236 244 241 235 229 228 251 250 244 243 245 249 250 249 249 249 249 249 249 249 247 242 235 233 234 231 224 218 216 215 214 213 212 211 208 206 207 207 205 204 204 203 202 200 200 201 203 204 204 204 204 206 210 214 216 218 217 215 213 214 217 221 220 216 217 220 220
220 217 215 209 219 223 219 219 219 216 219 228 228 225 226 230 233 235 237 241 244 245 243 231 224 250 255 244 240 243 248 249 249 249 249 248 247 248 248 247 244 236 229 230 232 227 220 218 218 217 216 215 213 210 208 208 208 206 205 204 205 204 201 200 201 204 205 205 204 204 205 208 211 214 215 217 216 213 213 216 219 221 219 219 222 225
222 220 215 204 204 221 222 223 221 216 219 227 230 231 231 232 235 239 242 246 250 255 256 244 232 244 256 244 239 240 244 245 245 246 247 248 249 248 245 244 242 237 230 228 231 232 226 222 220 218 218 217 214 212 211 210 209 208 206 205 205 205 203 202 201 203 206 206 205 204 205 207 208 208 208 212 213 210 211 214 218 221 222 222 225 228
226 227 222 212 211 221 224 226 225 221 221 224 228 236 236 234 237 242 246 250 253 257 254 248 239 236 253 245 237 235 238 239 240 243 245 247 248 247 243 239 237 236 232 227 227 232 232 228 224 219 217 216 214 213 213 212 211 210 209 207 207 207 205 204 202 203 204 205 205 204 205 205 206 206 207 209 210 209 209 212 217 222 225 226 228 231
231 234 231 224 221 222 223 224 226 226 226 227 226 227 237 237 236 240 245 248 252 250 245 246 242 237 251 245 236 233 235 236 239 241 244 246 247 247 244 240 239 236 231 225 223 227 231 231 227 222 218 216 215 215 214 213 213 212 210 209 208 208 207 206 204 203 203 205 205 205 204 204 205 207 208 208 209 208 208 211 216 222 227 230 232 233
231 231 232 231 228 225 224 225 227 228 229 228 225 221 228 231 228 234 239 235 235 245 244 245 243 236 238 241 236 232 234 236 239 241 242 247 246 242 240 239 238 235 229 225 223 224 228 228 225 220 217 216 214 215 215 215 214 213 211 210 209 209 209 208 206 204 204 205 205 204 204 204 204 206 208 208 208 208 208 211 215 221 228 233 237 238
229 228 227 231 234 229 226 227 228 229 228 225 219 214 216 212 205 218 224 225 230 249 245 244 242 234 238 245 239 232 233 233 235 240 242 246 244 235 231 231 231 230 229 226 223 223 224 224 222 218 215 214 213 215 216 215 215 215 213 211 209 209 209 209 208 206 206 206 205 203 204 205 205 205 206 206 206 206 207 210 214 220 228 235 241 243
232 232 228 228 232 229 226 225 223 222 223 221 213 206 204 185 176 214 212 238 253 250 244 244 245 237 241 249 241 231 230 231 232 238 242 245 244 238 235 235 233 231 229 226 223 223 222 219 220 219 215 214 214 214 216 216 217 217 216 213 210 208 208 210 210 208 208 207 206 204 203 205 205 205 205 205 205 205 207 211 215 220 226 233 240 245
226 229 224 222 224 225 225 224 223 224 223 223 216 210 210 205 199 209 192 223 254 254 243 242 240 215 223 249 245 233 229 230 232 235 239 244 245 247 251 252 247 240 234 229 225 224 222 217 218 220 216 215 215 215 215 216 218 219 219 217 212 209 208 209 210 210 209 208 207 206 205 205 206 205 205 205 206 205 207 210 213 217 222 228 235 239
227 228 220 218 217 219 223 224 226 224 222 225 219 211 215 215 211 213 228 235 241 250 239 234 230 221 234 256 252 238 232 231 232 233 237 241 244 252 261 258 252 245 239 234 228 225 224 219 218 220 217 217 216 215 215 215 217 220 221 220 216 212 210 209 210 210 210 208 208 208 206 206 206 205 205 205 207 207 208 209 211 214 219 223 227 232
243 233 218 213 214 213 216 221 223 221 217 217 213 210 216 219 216 219 247 252 235 225 232 230 235 243 246 254 253 244 237 232 231 235 236 237 242 251 256 253 249 245 241 238 231 227 227 222 219 219 217 216 217 216 215 214 215 218 221 223 220 215 212 211 210 211 210 209 209 209 208 207 207 206 205 206 208 210 210 210 210 211 214 218 222 226
294 246 217 205 210 211 212 218 223 225 222 213 210 215 216 217 221 224 233 248 222 227 242 228 234 237 231 241 245 242 240 233 229 233 234 236 240 246 250 250 248 245 242 240 235 232 232 228 223 221 219 217 218 218 218 216 215 216 220 224 224 220 216 213 212 211 211 210 210 210 209 208 207 207 206 206 208 211 213 212 211 211 212 215 219 223
312 264 225 210 208 209 210 214 219 225 228 224 222 223 213 201 210 215 217 231 219 229 272 236 235 232 225 230 234 236 240 236 231 230 232 233 235 240 245 248 247 245 243 242 239 236 235 234 229 225 223 220 219 220 220 218 216 215 217 222 224 224 220 216 214 212 211 211 211 211 210 209 208 208 207 207 208 211 213 213 214 213 212 214 218 222
326 297 238 221 215 212 209 211 214 216 221 226 230 229 218 212 211 209 211 219 217 214 251 250 248 235 234 237 233 233 239 237 233 231 231 230 231 234 239 244 246 243 240 240 241 239 237 237 235 232 228 224 221 221 221 220 218 216 216 220 223 223 221 218 216 214 213 213 213 212 211 211 210 209 208 208 209 211 213 214 215 215 214 214 217 220
272 311 255 227 216 212 206 207 213 215 212 215 220 218 214 216 216 213 218 220 221 223 193 225 254 243 242 243 239 234 237 239 236 233 233 232 232 232 234 240 241 238 236 237 239 242 240 238 237 236 233 228 223 223 223 222 220 217 216 219 221 222 221 218 216 214 213 213 214 214 213 212 211 210 210 210 211 211 212 214 215 216 215 215 216 218
308 309 272 245 229 217 202 199 208 213 211 211 215 214 213 215 211 205 217 219 221 229 229 227 269 255 245 246 244 236 230 236 237 234 236 237 236 235 234 238 237 232 233 233 234 238 237 236 235 236 236 231 225 224 224 223 221 218 217 217 219 221 221 220 218 216 214 213 214 215 215 215 214 213 212 212 212 212 212 213 214 215 216 216 216 218
316 317 276 259 250 226 199 189 196 204 206 208 212 213 215 219 217 213 216 215 216 225 237 246 269 263 248 238 242 236 223 227 233 234 238 239 238 239 238 239 237 233 232 230 231 233 228 227 231 233 234 232 227 225 224 224 223 220 218 217 218 219 220 220 220 218 216 215 215 216 216 216 216 216 215 215 214 214 214 214 214 215 217 217 217 218
314 328 295 268 258 233 206 198 208 213 209 210 211 208 209 216 220 223 230 230 219 217 226 235 261 258 250 240 234 233 221 219 223 228 233 235 235 235 235 237 236 237 236 231 231 230 222 223 231 233 232 230 228 226 225 225 224 222 220 218 218 219 218 219 219 219 218 217 216 216 216 217 217 217 217 217 217 216 216 216 216 217 218 218 218 218
272 306 321 296 273 242 221 219 234 236 222 214 210 202 205 212 218 225 232 234 230 225 221 214 240 253 252 246 236 230 224 222 220 224 233 237 239 237 235 235 233 234 235 231 229 226 221 223 229 231 230 228 226 226 226 226 225 222 220 218 219 219 217 217 218 219 220 219 218 218 218 218 218 218 219 219 219 219 218 218 218 218 219 219 219 218
261 257 280 292 201 221 224 225 260 268 248 226 209 197 200 209 216 225 233 231 233 234 224 215 236 249 250 246 236 224 219 224 224 226 233 236 240 242 241 240 239 236 232 228 228 223 219 221 224 224 225 224 224 226 226 226 224 222 220 218 219 219 218 218 218 218 220 220 220 220 220 220 220 219 219 220 221 220 220 220 220 220 221 220 220 219
255 251 261 263 246 244 256 269 296 308 288 257 229 207 202 207 218 227 232 230 233 237 230 228 242 252 252 248 244 239 233 233 234 234 229 225 228 232 233 238 246 243 235 229 228 224 218 217 219 221 220 217 220 224 226 226 224 222 219 216 216 216 217 218 218 219 220 220 221 222 222 223 223 222 222 222 222 222 222 222 222 222 222 222 222 221
244 247 253 261 259 261 269 272 279 293 287 275 262 235 217 218 232 234 228 225 229 236 238 237 242 253 257 254 253 255 254 252 250 249 246 238 236 237 237 247 256 248 235 230 228 226 221 216 215 220 219 213 214 221 224 224 223 223 220 216 212 210 211 214 216 218 220 221 223 223 224 224 225 226 225 225 225 225 225 225 224 224 224 223 224 224
239 250 249 255 261 259 264 273 281 286 281 274 268 258 247 247 246 241 231 222 222 230 240 242 243 249 255 256 259 263 265 266 264 264 264 261 258 255 255 261 259 241 231 231 229 225 222 218 215 217 218 212 210 216 221 221 221 222 220 215 210 207 206 207 209 212 215 219 222 223 224 225 226 227 228 227 228 228 228 227 227 227 226 226 227 227
238 252 249 253 258 254 258 273 282 274 270 267 261 265 278 271 252 242 234 223 223 230 237 242 246 248 251 255 262 267 270 275 277 278 276 269 262 261 262 262 249 229 224 228 227 224 222 220 218 218 218 212 209 212 215 217 218 219 217 213 209 206 206 206 206 207 209 212 215 217 219 221 223 225 227 228 229 230 230 231 231 231 230 230 230 230
229 239 240 247 254 254 254 260 259 254 260 262 255 261 286 280 261 246 238 227 225 230 232 236 244 249 250 254 260 264 269 275 278 279 276 271 269 268 262 251 235 221 217 219 220 220 219 219 221 220 215 210 210 211 211 212 214 217 216 212 209 207 208 209 210 210 210 208 206 208 212 215 218 221 224 226 228 230 231 233 234 234 234 233 233 233
222 230 232 238 258 260 244 237 245 242 248 253 250 259 281 278 259 246 236 228 225 226 230 234 240 245 248 253 257 261 265 270 275 278 277 277 277 267 250 233 220 216 215 214 213 214 213 215 219 215 205 204 210 210 208 208 211 214 213 210 207 208 210 212 213 214 215 213 209 208 210 212 215 218 221 223 226 227 229 231 233 234 234 234 234 234
223 231 233 236 263 257 233 240 257 236 229 238 240 251 264 247 225 221 221 223 222 221 225 232 237 242 247 252 255 258 262 266 272 276 279 282 274 245 220 211 207 206 206 205 205 204 202 205 209 203 195 201 210 209 207 207 208 210 210 208 208 209 210 212 214 215 217 216 215 215 215 215 216 218 219 221 223 224 226 229 231 233 233 234 235 235
229 224 225 227 251 246 239 255 259 215 200 199 207 232 234 190 176 180 192 212 213 213 221 228 234 240 245 250 254 257 260 264 270 275 278 282 258 210 193 202 205 197 193 193 194 193 191 195 198 193 190 199 208 208 206 205 206 208 211 211 211 211 212 213 215 216 217 217 217 219 219 219 220 220 220 221 222 223 225 227 229 231 233 234 235 235
230 216 213 216 235 249 254 259 228 184 189 184 181 201 212 188 167 165 171 198 204 208 217 224 230 237 242 246 251 254 257 262 268 271 275 278 239 192 178 194 204 195 192 191 188 188 190 192 193 189 189 196 203 205 203 203 204 207 210 210 209 210 212 214 216 218 219 219 219 220 221 222 223 224 224 224 225 226 226 227 228 229 230 232 233 235
225 210 201 209 229 246 259 255 211 164 166 175 177 188 201 207 198 169 161 184 201 207 215 221 227 234 239 243 246 249 253 258 264 267 273 276 236 193 178 188 198 197 196 194 192 193 192 191 190 187 186 191 198 201 201 202 202 202 204 204 203 205 206 207 210 213 215 218 220 221 222 224 225 226 227 228 228 229 229 230 230 230 231 233 234 235
219 203 197 209 221 227 253 265 239 182 161 172 180 187 197 220 233 190 144 132 201 206 211 217 223 229 235 240 243 246 249 254 261 266 270 274 242 200 188 195 201 200 197 195 198 198 192 187 186 185 183 189 195 198 200 201 201 201 202 202 201 201 199 200 204 207 211 215 218 220 222 224 226 227 229 230 232 233 233 233 233 233 233 235 235 236
212 195 189 200 208 218 257 276 255 198 171 173 171 170 190 227 235 191 120 60 200 205 207 213 220 226 231 235 239 243 246 251 258 263 266 268 245 206 194 201 210 207 201 199 199 193 184 181 183 183 184 190 195 196 197 200 200 200 200 199 198 195 195 199 201 203 207 210 213 216 219 221 224 226 228 231 233 234 235 236 236 235 236 237 238 239
205 189 180 195 210 219 239 260 252 217 179 170 162 154 183 233 216 175 127 60 121 189 202 208 214 221 225 228 234 238 242 247 253 258 262 260 240 215 203 207 214 212 205 202 197 186 180 179 181 184 188 194 196 195 196 197 198 197 197 195 194 192 195 197 195 195 199 202 206 212 214 217 220 223 226 230 232 234 235 236 237 237 237 239 239 239
200 189 184 201 216 220 229 255 265 246 191 181 173 152 167 216 183 165 156 58 106 154 185 192 199 211 214 216 223 230 235 241 246 252 259 256 238 223 214 213 216 214 206 202 197 187 182 181 181 185 190 194 195 194 195 194 194 196 197 195 194 195 197 197 196 198 202 203 207 213 216 218 219 221 224 228 230 233 235 236 237 237 238 239 240 240
193 188 191 205 217 221 230 252 264 252 228 207 192 169 166 180 167 158 171 80 101 125 148 155 161 183 201 206 211 217 224 233 239 245 252 252 239 226 219 215 216 214 207 203 198 190 186 185 185 186 188 191 192 193 194 194 195 198 199 197 196 199 200 201 203 207 212 215 217 218 219 218 218 220 223 225 227 230 233 235 237 238 239 239 240 241
183 181 190 208 222 228 230 245 265 266 243 209 193 177 171 169 159 153 156 101 98 115 129 136 139 150 176 192 192 196 209 222 232 239 243 242 235 226 218 213 213 211 206 202 198 194 191 190 189 189 189 189 190 192 194 196 199 201 202 201 201 204 209 212 215 220 227 232 231 226 222 219 216 216 218 221 224 227 230 233 236 238 239 240 240 242
171 170 180 198 207 212 216 226 258 282 235 209 195 184 179 169 154 155 153 105 99 115 126 130 131 136 152 164 162 172 194 210 219 226 229 228 225 221 214 208 207 207 202 198 196 196 196 195 195 195 194 191 192 195 197 199 202 204 205 206 208 211 217 222 226 231 236 232 222 218 221 222 220 218 218 219 222 225 227 231 235 237 239 240 241 242
147 160 167 170 166 157 171 187 218 36 54 209 181 175 183 175 153 152 141 105 106 118 124 126 126 131 144 152 150 160 180 191 198 205 210 211 210 209 206 203 202 202 200 197 196 197 198 199 199 199 197 196 197 199 200 202 206 208 208 210 212 215 223 230 230 229 230 223 211 206 211 217 220 222 222 222 224 228 230 232 235 238 240 241 243 244
100 129 154 153 144 125 125 144 187 128 103 154 145 152 174 176 158 144 121 103 110 118 120 124 127 131 142 150 151 156 164 169 174 181 186 189 191 193 194 195 197 199 199 198 198 199 200 200 199 198 199 199 199 200 203 205 209 212 214 214 215 219 225 230 227 224 226 228 224 218 217 219 221 223 225 226 227 230 234 236 239 241 243 244 245 247
81 114 153 153 135 131 130 131 176 187 166 170 161 159 172 178 169 149 114 99 105 111 116 123 128 131 135 143 147 148 149 152 158 163 166 170 173 177 180 184 189 193 196 197 198 199 199 198 197 197 199 200 200 202 206 208 211 215 217 219 220 221 220 220 218 215 219 224 225 223 225 229 230 230 231 230 227 227 230 234 238 241 245 246 248 249
68 111 158 168 148 145 150 166 215 235 222 183 186 193 183 178 179 174 128 101 100 105 112 119 123 123 124 131 139 139 137 141 150 155 156 159 161 164 168 172 176 181 185 188 190 191 190 189 189 189 192 196 198 200 204 208 211 214 216 216 218 219 218 219 219 219 221 224 226 228 231 237 242 245 246 242 236 232 230 230 232 235 240 245 248 251
15 45 161 196 184 164 173 198 221 249 259 224 201 231 215 181 177 186 175 111 100 101 108 116 119 118 118 125 133 133 130 135 147 152 153 155 157 158 159 162 165 168 170 174 177 179 179 178 180 180 182 186 189 192 197 202 205 209 210 212 216 220 223 226 230 233 235 236 238 240 243 246 251 255 258 256 251 245 240 238 237 237 239 243 246 249
345 336 316 264 225 198 205 223 226 244 257 246 210 224 250 218 181 179 192 184 109 101 104 114 119 119 118 120 126 130 129 131 139 147 150 151 155 157 158 159 161 162 164 167 168 171 173 174 176 178 179 182 186 189 193 197 201 205 210 214 220 225 231 235 239 243 246 248 249 251 254 256 260 263 265 266 264 260 254 249 246 244 244 245 245 246
344 331 324 299 264 235 235 251 254 251 252 252 248 231 244 258 201 176 183 213 210 116 108 113 120 122 121 120 124 129 130 130 133 139 143 146 151 156 159 161 163 164 166 167 168 170 174 177 179 180 182 184 186 188 191 195 200 204 210 218 225 231 237 241 245 249 252 254 256 258 259 262 264 266 266 266 265 263 260 256 253 251 250 250 250 250
355 337 326 314 299 281 266 264 264 261 256 253 258 257 251 265 247 185 177 204 242 223 133 120 117 118 121 124 125 127 130 131 133 135 137 139 146 153 158 162 165 167 169 171 172 173 176 181 184 185 186 187 189 191 194 198 202 207 213 221 227 233 239 245 251 254 256 256 257 257 258 261 263 265 265 264 262 260 258 256 254 253 253 255 256 257
Height
3106 3106 3103 3101 3101 3104 3109 3113 3116 3121 3125 3127 3129 3130 3132 3133 3134 3136 3140 3142 3143 3143 3142 3143 3143 3144 3145 3145 3147 3149 3150 3151 3152 3152 3153 3154 3155 3156 3158 3159 3161 3163 3165 3167 3168 3169 3170 3172 3174 3176 3178 3180 3182 3184 3185 3187 3189 3191 3193 3195 3197 3199 3201 3202 3204 3205 3207 3210 3212 3214 3216 3218 3220 3222 3223 3224 3226 3227 3228 3229 3230 3231 3232 3233 3234 3234
3103 3100 3097 3097 3101 3107 3111 3115 3118 3120 3123 3125 3127 3128 3130 3131 3132 3135 3138 3139 3142 3142 3141 3142 3142 3141 3142 3143 3145 3146 3147 3148 3149 3150 3151 3152 3153 3154 3156 3158 3160 3162 3164 3165 3165 3167 3168 3170 3172 3174 3176 3178 3179 3181 3183 3185 3188 3190 3191 3194 3196 3198 3199 3201 3203 3205 3207 3209 3211 3214 3216 3218 3219 3221 3222 3224 3225 3227 3227 3228 3229 3230 3232 3233 3234 3234
3098 3094 3094 3099 3104 3109 3112 3114 3117 3119 3121 3123 3125 3126 3127 3128 3130 3133 3136 3137 3140 3140 3139 3140 3140 3139 3140 3141 3142 3143 3143 3145 3147 3148 3149 3151 3152 3153 3154 3156 3158 3160 3161 3162 3163 3165 3166 3168 3170 3171 3173 3175 3178 3180 3182 3184 3186 3188 3190 3192 3194 3196 3198 3200 3202 3204 3206 3208 3211 3213 3215 3217 3218 3220 3221 3223 3224 3225 3226 3227 3229 3230 3231 3232 3233 3234
3091 3090 3094 3100 3104 3107 3110 3113 3115 3117 3119 3120 3122 3123 3123 3126 3129 3131 3134 3136 3137 3138 3138 3139 3138 3137 3138 3139 3139 3139 3141 3142 3145 3146 3148 3149 3150 3151 3153 3154 3156 3158 3160 3161 3163 3163 3165 3166 3167 3169 3171 3173 3176 3178 3180 3182 3184 3186 3188 3190 3192 3194 3197 3199 3201 3203 3206 3207 3209 3211 3213 3214 3216 3217 3219 3220 3221 3223 3224 3226 3228 3229 3231 3232 3233 3234
3087 3090 3095 3099 3102 3106 3109 3111 3113 3115 3116 3117 3119 3120 3121 3125 3128 3129 3133 3135 3135 3136 3136 3137 3137 3134 3134 3136 3135 3136 3138 3140 3141 3143 3145 3146 3147 3149 3151 3153 3155 3157 3159 3161 3162 3163 3163 3164 3165 3167 3169 3171 3173 3176 3178 3180 3183 3185 3187 3189 3191 3193 3195 3198 3200 3202 3204 3205 3207 3208 3210 3211 3213 3215 3216 3218 3219 3221 3223 3225 3227 3229 3230 3231 3232 3233
3089 3093 3095 3097 3101 3104 3106 3108 3110 3112 3114 3115 3115 3117 3120 3124 3126 3129 3132 3133 3134 3134 3134 3136 3135 3131 3131 3133 3133 3134 3135 3136 3138 3140 3141 3142 3144 3146 3148 3150 3153 3155 3157 3159 3161 3162 3162 3163 3164 3166 3168 3169 3171 3174 3177 3179 3182 3184 3187 3188 3190 3192 3194 3196 3198 3200 3202 3203 3205 3206 3208 3209 3211 3213 3215 3217 3219 3221 3223 3225 3227 3229 3230 3231 3232 3233
3088 3093 3095 3097 3099 3101 3104 3106 3108 3111 3114 3113 3112 3116 3121 3123 3126 3128 3130 3132 3132 3132 3132 3134 3133 3130 3129 3129 3130 3132 3132 3133 3135 3136 3137 3139 3141 3143 3145 3147 3150 3152 3154 3156 3158 3160 3161 3162 3163 3164 3166 3168 3170 3173 3176 3178 3180 3183 3185 3187 3189 3191 3193 3195 3196 3198 3200 3201 3203 3205 3207 3209 3211 3213 3216 3218 3220 3222 3224 3225 3226 3228 3229 3230 3231 3232
3086 3091 3093 3095 3097 3099 3100 3101 3104 3109 3111 3109 3110 3117 3119 3121 3125 3126 3128 3130 3129 3130 3130 3130 3131 3129 3125 3125 3128 3130 3129 3130 3131 3132 3133 3135 3138 3140 3142 3145 3147 3149 3151 3154 3156 3157 3159 3160 3161 3163 3165 3167 3169 3172 3174 3176 3179 3181 3184 3186 3188 3190 3191 3193 3195 3196 3198 3200 3202 3204 3206 3208 3210 3213 3216 3218 3220 3221 3223 3224 3225 3227 3228 3229 3230 3231
3085 3087 3089 3093 3095 3095 3095 3097 3102 3107 3107 3107 3111 3116 3118 3121 3124 3125 3128 3128 3129 3129 3124 3124 3129 3128 3122 3121 3125 3126 3125 3125 3126 3127 3130 3132 3135 3137 3139 3142 3144 3146 3149 3152 3154 3156 3157 3159 3161 3163 3165 3166 3169 3171 3173 3175 3178 3180 3182 3184 3186 3188 3190 3191 3193 3195 3197 3199 3201 3203 3205 3206 3209 3211 3214 3215 3217 3219 3221 3223 3224 3226 3227 3228 3229 3230
3085 3086 3089 3093 3092 3090 3093 3097 3101 3104 3105 3107 3112 3115 3117 3120 3122 3125 3126 3126 3129 3126 3118 3119 3125 3125 3120 3118 3121 3122 3120 3121 3122 3125 3127 3130 3132 3134 3137 3139 3141 3144 3146 3149 3152 3154 3156 3158 3161 3163 3164 3165 3167 3169 3171 3174 3176 3178 3180 3182 3184 3186 3188 3190 3192 3194 3196 3198 3199 3201 3203 3205 3208 3210 3212 3213 3215 3218 3220 3222 3223 3225 3226 3227 3229 3230
3084 3086 3089 3089 3088 3090 3094 3097 3099 3101 3104 3107 3111 3115 3117 3119 3121 3123 3123 3125 3126 3117 3111 3116 3121 3123 3119 3114 3115 3116 3116 3118 3121 3123 3125 3127 3129 3131 3134 3137 3139 3141 3144 3146 3149 3152 3154 3157 3160 3161 3162 3164 3166 3167 3169 3171 3174 3176 3178 3180 3182 3184 3186 3188 3190 3192 3194 3196 3198 3200 3202 3204 3206 3208 3210 3212 3214 3216 3218 3220 3222 3224 3225 3227 3228 3229
3081 3084 3084 3085 3087 3091 3094 3096 3098 3100 3103 3106 3109 3113 3116 3117 3119 3121 3121 3123 3119 3107 3107 3114 3118 3120 3114 3107 3111 3113 3114 3117 3119 3121 3123 3125 3126 3128 3130 3133 3136 3139 3141 3144 3147 3150 3152 3154 3156 3158 3159 3162 3164 3165 3166 3169 3171 3174 3176 3178 3180 3182 3184 3186 3189 3191 3193 3194 3196 3199 3201 3203 3205 3207 3209 3211 3213 3215 3218 3220 3221 3223 3224 3225 3227 3228
3077 3079 3081 3084 3086 3089 3091 3093 3096 3098 3100 3103 3106 3110 3113 3114 3116 3117 3115 3114 3109 3103 3106 3112 3115 3113 3106 3103 3109 3111 3112 3115 3116 3119 3122 3123 3124 3126 3128 3130 3133 3136 3139 3142 3144 3147 3150 3152 3153 3155 3157 3159 3160 3162 3164 3166 3169 3171 3173 3175 3177 3179 3182 3184 3187 3189 3191 3193 3195 3197 3199 3201 3203 3205 3207 3210 3212 3214 3216 3218 3220 3221 3223 3224 3226 3227
3074 3076 3079 3082 3083 3085 3087 3088 3090 3093 3096 3099 3102 3105 3107 3109 3112 3112 3110 3108 3104 3103 3107 3111 3112 3107 3100 3101 3105 3106 3109 3112 3115 3118 3119 3121 3122 3123 3125 3128 3131 3133 3136 3139 3142 3144 3147 3149 3150 3152 3155 3157 3158 3160 3162 3164 3167 3169 3171 3173 3175 3177 3180 3182 3185 3187 3189 3191 3194 3196 3198 3200 3202 3204 3206 3208 3210 3213 3215 3217 3219 3220 3222 3223 3225 3226
3072 3071 3073 3077 3079 3081 3083 3084 3087 3091 3094 3096 3098 3102 3102 3103 3105 3106 3107 3105 3104 3104 3106 3108 3107 3099 3096 3098 3100 3104 3108 3110 3113 3116 3117 3119 3119 3121 3123 3125 3127 3130 3133 3137 3139 3141 3144 3147 3149 3150 3153 3155 3157 3159 3160 3162 3164 3166 3169 3171 3173 3175 3178 3180 3183 3185 3187 3190 3193 3195 3196 3198 3200 3203 3205 3207 3209 3211 3213 3215 3217 3219 3220 3222 3223 3225
3067 3066 3068 3072 3075 3079 3081 3083 3086 3090 3091 3093 3096 3099 3098 3097 3100 3103 3103 3102 3103 3104 3102 3099 3096 3093 3094 3096 3098 3103 3106 3108 3111 3113 3115 3116 3117 3119 3121 3122 3124 3126 3129 3133 3136 3138 3141 3144 3147 3148 3151 3153 3155 3157 3158 3160 3162 3164 3166 3169 3172 3174 3176 3178 3180 3183 3186 3189 3191 3193 3195 3197 3199 3201 3203 3205 3207 3210 3212 3214 3216 3218 3219 3221 3222 3223
3064 3062 3065 3069 3072 3076 3079 3080 3083 3085 3086 3089 3091 3091 3091 3095 3100 3102 3101 3100 3102 3101 3094 3091 3091 3092 3094 3095 3096 3100 3103 3105 3109 3111 3112 3114 3115 3118 3118 3119 3121 3122 3125 3129 3133 3136 3138 3141 3144 3146 3148 3150 3152 3154 3155 3157 3160 3162 3165 3168 3170 3172 3174 3176 3178 3181 3184 3187 3189 3191 3193 3195 3197 3199 3201 3204 3206 3209 3211 3212 3214 3216 3217 3219 3220 3221
3063 3060 3063 3067 3069 3072 3075 3077 3080 3081 3083 3085 3085 3086 3091 3097 3100 3101 3100 3098 3099 3096 3090 3088 3090 3091 3092 3091 3092 3097 3099 3102 3106 3108 3110 3112 3113 3115 3116 3117 3119 3120 3122 3125 3129 3133 3135 3138 3141 3143 3146 3148 3150 3152 3154 3156 3158 3161 3164 3166 3168 3170 3172 3174 3177 3179 3182 3185 3187 3189 3191 3193 3196 3198 3200 3203 3205 3207 3208 3210 3212 3214 3215 3217 3218 3219
3063 3060 3061 3064 3066 3068 3071 3074 3077 3078 3081 3083 3083 3085 3089 3092 3092 3094 3096 3094 3095 3094 3089 3087 3087 3087 3087 3087 3089 3094 3096 3099 3103 3105 3108 3109 3111 3113 3114 3115 3117 3118 3120 3122 3125 3129 3132 3135 3138 3141 3143 3145 3148 3150 3152 3155 3157 3159 3162 3164 3167 3169 3171 3173 3175 3178 3180 3182 3185 3187 3190 3192 3194 3196 3199 3201 3203 3204 3206 3208 3210 3212 3214 3215 3217 3218
3063 3062 3061 3061 3063 3065 3068 3070 3072 3074 3077 3081 3083 3084 3085 3086 3086 3088 3089 3089 3090 3092 3089 3087 3084 3082 3082 3085 3089 3092 3094 3098 3101 3102 3105 3107 3109 3111 3112 3113 3114 3116 3118 3119 3122 3125 3128 3132 3135 3138 3140 3143 3146 3148 3150 3153 3155 3157 3160 3162 3165 3167 3169 3171 3173 3175 3178 3180 3183 3185 3188 3190 3192 3194 3197 3199 3201 3202 3205 3207 3208 3210 3212 3213 3214 3216
3062 3063 3060 3059 3061 3063 3064 3067 3069 3072 3075 3077 3078 3079 3081 3083 3084 3085 3086 3086 3087 3088 3086 3086 3082 3078 3079 3083 3086 3090 3092 3095 3098 3099 3102 3104 3107 3109 3111 3112 3113 3114 3116 3118 3120 3122 3125 3128 3132 3135 3137 3141 3144 3146 3148 3150 3152 3155 3157 3160 3163 3165 3167 3169 3171 3173 3175 3178 3181 3183 3185 3188 3190 3192 3194 3197 3199 3201 3203 3205 3207 3208 3210 3211 3212 3213
3061 3061 3060 3058 3059 3060 3061 3064 3067 3070 3072 3073 3074 3075 3078 3080 3081 3083 3083 3082 3084 3084 3082 3083 3079 3075 3078 3082 3083 3088 3090 3092 3095 3097 3099 3102 3104 3107 3109 3110 3111 3113 3115 3117 3118 3120 3122 3125 3128 3131 3134 3138 3141 3143 3145 3147 3150 3152 3154 3157 3160 3162 3164 3166 3169 3171 3173 3176 3178 3181 3183 3186 3188 3190 3192 3194 3196 3199 3201 3203 3204 3206 3208 3209 3210 3212
3059 3059 3058 3057 3056 3057 3059 3062 3064 3065 3067 3069 3071 3073 3076 3078 3078 3079 3077 3077 3080 3081 3080 3082 3076 3070 3076 3082 3082 3085 3088 3090 3092 3094 3096 3099 3101 3104 3106 3108 3110 3111 3113 3115 3117 3118 3120 3122 3125 3127 3130 3134 3138 3140 3143 3145 3147 3149 3152 3155 3158 3160 3162 3165 3167 3170 3172 3174 3176 3179 3181 3184 3186 3188 3190 3192 3194 3196 3199 3200 3203 3204 3205 3207 3209 3210
3058 3058 3058 3056 3055 3057 3059 3061 3062 3063 3064 3066 3067 3069 3072 3074 3074 3075 3075 3076 3078 3077 3078 3081 3074 3065 3070 3079 3081 3084 3086 3088 3090 3092 3094 3096 3098 3101 3103 3105 3108 3109 3111 3113 3114 3116 3118 3119 3121 3123 3127 3130 3134 3137 3140 3142 3144 3147 3150 3153 3155 3158 3161 3163 3165 3168 3170 3172 3174 3177 3179 3181 3183 3185 3187 3189 3192 3194 3196 3198 3200 3202 3203 3205 3207 3208
3057 3057 3057 3057 3057 3058 3059 3059 3060 3060 3061 3062 3063 3066 3067 3070 3071 3072 3073 3075 3074 3071 3074 3076 3069 3061 3066 3075 3079 3082 3084 3085 3087 3090 3091 3093 3095 3098 3101 3103 3105 3106 3108 3110 3111 3113 3115 3116 3118 3120 3123 3127 3130 3134 3137 3139 3142 3145 3148 3150 3152 3156 3159 3161 3163 3165 3167 3169 3172 3174 3176 3178 3180 3183 3185 3187 3189 3192 3194 3196 3198 3200 3201 3203 3204 3206
3056 3057 3057 3058 3059 3058 3056 3056 3058 3058 3058 3058 3060 3062 3064 3067 3068 3068 3071 3071 3068 3066 3069 3068 3063 3060 3066 3073 3076 3079 3081 3082 3085 3087 3088 3090 3092 3095 3097 3099 3101 3103 3105 3107 3109 3110 3112 3114 3116 3118 3121 3124 3127 3130 3134 3137 3140 3143 3145 3148 3151 3154 3156 3159 3161 3163 3165 3167 3169 3171 3173 3175 3178 3180 3182 3185 3187 3190 3192 3194 3196 3197 3199 3201 3202 3204
3054 3055 3056 3057 3057 3056 3054 3055 3058 3058 3057 3056 3057 3058 3061 3063 3064 3065 3067 3065 3064 3065 3065 3064 3062 3061 3063 3069 3073 3076 3079 3080 3082 3084 3085 3087 3088 3090 3092 3094 3096 3098 3100 3103 3106 3107 3110 3112 3114 3116 3118 3121 3124 3127 3130 3134 3138 3141 3143 3146 3149 3151 3154 3156 3158 3161 3163 3165 3166 3168 3171 3173 3175 3178 3180 3183 3185 3188 3190 3191 3193 3195 3197 3199 3200 3202
3052 3052 3054 3054 3054 3055 3054 3054 3057 3058 3057 3055 3055 3055 3057 3060 3061 3061 3060 3060 3063 3064 3060 3061 3065 3061 3057 3062 3069 3073 3076 3078 3079 3081 3083 3084 3085 3086 3087 3089 3090 3092 3094 3098 3101 3104 3106 3110 3112 3114 3116 3119 3122 3124 3127 3131 3135 3139 3142 3145 3147 3149 3152 3154 3156 3158 3160 3162 3164 3166 3169 3171 3174 3176 3179 3181 3183 3185 3187 3189 3191 3193 3195 3196 3198 3199
3050 3050 3051 3052 3052 3053 3053 3053 3056 3057 3055 3054 3054 3054 3055 3056 3057 3056 3055 3058 3061 3059 3057 3061 3066 3060 3054 3057 3063 3069 3072 3074 3076 3078 3079 3080 3081 3081 3082 3083 3083 3084 3088 3092 3096 3099 3103 3106 3109 3112 3114 3116 3119 3121 3124 3128 3132 3136 3139 3143 3145 3148 3150 3152 3154 3156 3158 3160 3162 3164 3167 3170 3172 3174 3176 3178 3180 3182 3184 3187 3189 3190 3192 3194 3195 3197
3048 3048 3049 3050 3049 3050 3052 3053 3054 3055 3054 3053 3053 3054 3054 3053 3053 3053 3053 3056 3057 3056 3058 3062 3061 3057 3055 3057 3060 3064 3067 3069 3071 3073 3074 3075 3075 3076 3076 3075 3075 3077 3081 3085 3090 3095 3099 3103 3107 3109 3111 3113 3116 3119 3122 3126 3130 3133 3137 3140 3143 3146 3148 3150 3152 3154 3156 3158 3160 3163 3165 3167 3170 3172 3174 3175 3177 3180 3182 3184 3186 3188 3190 3191 3193 3195
3047 3047 3047 3048 3047 3048 3051 3052 3053 3052 3052 3051 3052 3054 3052 3050 3050 3051 3052 3054 3054 3055 3058 3060 3057 3054 3055 3057 3059 3061 3064 3066 3067 3068 3069 3070 3070 3070 3069 3069 3070 3072 3075 3079 3085 3090 3095 3100 3103 3106 3108 3111 3113 3117 3120 3123 3127 3131 3134 3138 3141 3144 3146 3148 3150 3152 3154 3157 3159 3161 3163 3165 3167 3169 3171 3173 3175 3177 3180 3182 3183 3185 3187 3189 3190 3192
3045 3045 3045 3047 3046 3046 3049 3051 3050 3050 3051 3051 3051 3052 3050 3048 3048 3048 3049 3050 3051 3053 3056 3057 3054 3052 3053 3056 3058 3059 3061 3063 3063 3064 3065 3065 3065 3065 3064 3065 3066 3069 3072 3076 3080 3086 3091 3095 3099 3102 3105 3108 3111 3115 3118 3121 3125 3128 3132 3135 3139 3142 3144 3146 3148 3150 3153 3155 3158 3160 3161 3163 3165 3167 3169 3171 3173 3175 3177 3179 3180 3182 3184 3185 3187 3189
3043 3043 3044 3046 3045 3044 3047 3049 3048 3049 3049 3049 3049 3049 3048 3047 3045 3045 3046 3046 3047 3050 3053 3052 3051 3051 3052 3054 3056 3057 3059 3060 3060 3061 3061 3061 3062 3062 3062 3063 3065 3068 3071 3074 3078 3083 3087 3092 3096 3100 3103 3106 3110 3113 3116 3119 3122 3126 3129 3133 3136 3139 3142 3144 3146 3149 3151 3153 3156 3157 3159 3161 3163 3165 3167 3169 3171 3173 3174 3176 3177 3179 3181 3182 3184 3186
3041 3042 3042 3044 3044 3043 3045 3046 3046 3047 3046 3045 3046 3046 3046 3045 3043 3042 3043 3043 3044 3047 3048 3048 3049 3051 3051 3052 3054 3055 3056 3057 3058 3059 3059 3059 3059 3060 3061 3063 3064 3067 3070 3073 3077 3082 3086 3090 3094 3098 3101 3105 3109 3112 3115 3118 3121 3124 3127 3130 3134 3137 3139 3142 3144 3146 3149 3151 3153 3155 3157 3159 3161 3163 3165 3167 3169 3170 3171 3173 3174 3176 3178 3180 3181 3183
3039 3040 3041 3042 3042 3042 3043 3044 3044 3043 3041 3042 3043 3044 3044 3044 3042 3041 3041 3041 3041 3043 3044 3046 3048 3049 3049 3051 3052 3053 3054 3055 3056 3057 3058 3058 3058 3059 3061 3063 3065 3066 3068 3072 3076 3080 3084 3088 3092 3096 3099 3103 3106 3109 3112 3115 3118 3121 3125 3129 3132 3134 3136 3139 3141 3144 3146 3149 3150 3152 3154 3156 3158 3160 3162 3164 3166 3167 3169 3170 3172 3174 3175 3177 3178 3179
3037 3038 3039 3040 3041 3042 3042 3042 3041 3038 3038 3039 3041 3041 3043 3043 3042 3040 3040 3040 3040 3041 3043 3045 3046 3047 3047 3049 3050 3051 3052 3054 3054 3055 3056 3056 3057 3059 3060 3062 3065 3067 3068 3071 3075 3079 3083 3087 3091 3094 3098 3101 3104 3107 3110 3113 3116 3120 3124 3127 3129 3132 3134 3137 3139 3141 3144 3146 3148 3149 3151 3153 3155 3157 3159 3161 3163 3164 3166 3167 3169 3171 3173 3174 3176 3177
3034 3036 3037 3038 3039 3040 3040 3038 3036 3035 3036 3037 3038 3039 3041 3041 3041 3039 3039 3039 3039 3039 3040 3042 3043 3044 3045 3046 3048 3049 3051 3052 3053 3054 3055 3055 3056 3058 3060 3062 3064 3066 3068 3071 3074 3078 3082 3086 3089 3093 3096 3100 3103 3106 3109 3112 3115 3119 3122 3125 3127 3130 3132 3134 3136 3139 3141 3143 3145 3147 3148 3150 3152 3154 3156 3158 3159 3161 3163 3165 3167 3169 3171 3172 3173 3174
3032 3033 3035 3037 3037 3038 3038 3037 3035 3033 3033 3034 3035 3037 3038 3039 3039 3038 3038 3038 3038 3037 3038 3039 3040 3041 3043 3045 3046 3048 3050 3051 3052 3053 3054 3055 3056 3057 3059 3062 3064 3066 3068 3070 3072 3075 3079 3083 3087 3091 3094 3098 3101 3104 3107 3110 3114 3117 3120 3123 3125 3128 3130 3132 3134 3137 3139 3141 3142 3144 3146 3148 3150 3151 3153 3155 3156 3158 3160 3162 3164 3166 3168 3169 3170 3172
3029 3031 3033 3035 3035 3035 3036 3036 3033 3030 3030 3031 3033 3034 3036 3037 3038 3038 3038 3037 3037 3037 3037 3037 3038 3040 3041 3043 3045 3047 3048 3049 3050 3052 3053 3054 3056 3057 3059 3061 3064 3066 3068 3070 3072 3074 3077 3081 3085 3089 3092 3096 3099 3102 3105 3108 3112 3115 3118 3121 3123 3125 3128 3130 3133 3135 3137 3139 3141 3142 3144 3145 3147 3149 3150 3152 3154 3156 3158 3159 3161 3163 3165 3166 3167 3169
3027 3029 3031 3032 3033 3033 3034 3034 3031 3028 3028 3029 3031 3032 3033 3035 3037 3038 3038 3037 3036 3036 3036 3036 3037 3039 3040 3041 3043 3045 3046 3047 3048 3050 3051 3053 3055 3057 3058 3060 3063 3065 3067 3069 3071 3074 3077 3080 3084 3088 3091 3095 3098 3101 3104 3107 3110 3114 3117 3119 3122 3124 3126 3129 3131 3133 3135 3137 3139 3140 3142 3143 3144 3146 3147 3149 3151 3153 3155 3156 3158 3160 3161 3163 3164 3166
3024 3026 3028 3029 3031 3032 3032 3032 3029 3027 3026 3027 3028 3030 3032 3034 3036 3037 3038 3036 3035 3035 3035 3036 3037 3038 3039 3040 3042 3043 3044 3045 3046 3048 3050 3052 3054 3055 3057 3059 3062 3064 3066 3068 3071 3073 3076 3079 3083 3087 3091 3094 3097 3100 3103 3106 3109 3112 3115 3117 3119 3122 3124 3127 3129 3131 3133 3135 3136 3138 3139 3140 3142 3143 3145 3146 3148 3150 3151 3153 3154 3156 3158 3159 3161 3163
3022 3024 3027 3028 3029 3030 3030 3030 3028 3026 3025 3025 3026 3028 3031 3033 3035 3036 3037 3035 3033 3032 3033 3034 3035 3036 3038 3040 3041 3042 3042 3043 3045 3048 3049 3051 3052 3054 3055 3058 3060 3062 3065 3067 3070 3073 3075 3078 3082 3086 3090 3093 3096 3099 3101 3104 3107 3110 3112 3115 3117 3120 3122 3124 3127 3129 3131 3133 3134 3135 3137 3137 3139 3140 3142 3143 3145 3146 3148 3149 3151 3152 3154 3156 3157 3159
3021 3023 3025 3027 3027 3027 3028 3028 3028 3026 3025 3024 3025 3027 3029 3030 3032 3034 3035 3033 3030 3028 3029 3030 3032 3034 3037 3039 3040 3041 3041 3041 3044 3047 3048 3049 3051 3052 3054 3056 3058 3060 3063 3065 3068 3071 3074 3077 3081 3084 3088 3092 3095 3097 3100 3103 3105 3108 3111 3113 3116 3118 3120 3122 3125 3127 3129 3130 3132 3133 3134 3135 3137 3138 3139 3140 3141 3143 3144 3146 3147 3149 3150 3152 3153 3155
3021 3023 3024 3024 3025 3025 3026 3027 3026 3026 3025 3024 3024 3026 3028 3029 3029 3031 3032 3029 3027 3026 3026 3027 3029 3031 3033 3036 3038 3039 3040 3041 3043 3045 3046 3048 3050 3051 3052 3054 3056 3059 3061 3064 3066 3070 3073 3076 3079 3082 3086 3090 3093 3096 3099 3101 3104 3107 3109 3112 3114 3117 3119 3121 3123 3124 3126 3128 3130 3131 3132 3134 3135 3136 3137 3138 3139 3141 3142 3143 3144 3146 3147 3148 3149 3151
3020 3021 3022 3023 3023 3023 3024 3025 3025 3025 3025 3025 3025 3026 3028 3029 3029 3029 3029 3027 3025 3024 3024 3024 3026 3028 3031 3033 3034 3036 3039 3040 3041 3044 3046 3047 3049 3050 3051 3053 3055 3057 3060 3062 3065 3068 3071 3074 3077 3081 3084 3087 3091 3094 3097 3100 3103 3105 3107 3110 3112 3115 3117 3119 3121 3122 3124 3126 3128 3129 3130 3132 3133 3134 3136 3137 3138 3139 3140 3141 3142 3143 3144 3145 3147 3148
3020 3020 3021 3022 3022 3022 3023 3023 3024 3024 3024 3025 3025 3025 3026 3028 3028 3028 3028 3026 3024 3023 3023 3023 3025 3027 3029 3030 3030 3031 3035 3038 3039 3042 3045 3047 3049 3050 3052 3053 3054 3056 3058 3061 3064 3067 3070 3073 3076 3079 3082 3085 3089 3092 3095 3098 3101 3103 3106 3108 3110 3112 3115 3117 3119 3121 3122 3124 3125 3127 3129 3130 3131 3133 3134 3135 3136 3137 3138 3140 3141 3142 3143 3144 3144 3145
3020 3020 3020 3021 3021 3022 3023 3023 3023 3023 3023 3024 3025 3025 3025 3027 3027 3028 3027 3026 3024 3023 3023 3023 3024 3026 3028 3029 3028 3029 3032 3036 3038 3040 3044 3046 3049 3050 3052 3053 3055 3056 3058 3061 3063 3066 3069 3072 3075 3078 3081 3084 3087 3090 3093 3096 3099 3101 3104 3106 3108 3110 3112 3114 3116 3118 3120 3122 3124 3125 3127 3128 3130 3131 3132 3133 3134 3135 3136 3137 3139 3140 3141 3142 3143 3144
3020 3020 3020 3020 3021 3021 3022 3022 3023 3023 3022 3023 3024 3024 3025 3025 3026 3027 3027 3026 3024 3024 3024 3024 3025 3026 3027 3028 3029 3030 3032 3034 3037 3040 3043 3045 3048 3050 3052 3053 3055 3056 3059 3061 3063 3065 3068 3071 3074 3077 3080 3083 3086 3088 3091 3094 3097 3099 3102 3104 3106 3108 3110 3112 3114 3116 3118 3119 3121 3123 3124 3126 3127 3128 3129 3130 3131 3132 3134 3135 3136 3138 3139 3140 3141 3142
3021 3020 3020 3020 3021 3021 3021 3022 3022 3022 3021 3022 3023 3024 3024 3024 3024 3025 3027 3027 3026 3026 3026 3026 3027 3027 3027 3027 3030 3033 3033 3033 3035 3039 3042 3044 3047 3049 3050 3052 3054 3056 3059 3061 3064 3066 3068 3070 3073 3076 3079 3082 3085 3087 3090 3093 3096 3098 3100 3102 3104 3106 3108 3110 3111 3113 3115 3116 3118 3119 3120 3122 3123 3124 3125 3126 3128 3129 3130 3132 3133 3134 3136 3137 3138 3139
3021 3020 3020 3020 3020 3021 3021 3021 3021 3021 3020 3020 3021 3022 3023 3024 3024 3024 3026 3028 3028 3027 3027 3027 3027 3028 3028 3028 3030 3033 3034 3035 3036 3038 3041 3043 3046 3047 3049 3051 3053 3055 3058 3060 3063 3065 3068 3071 3073 3075 3078 3081 3084 3086 3089 3092 3094 3096 3099 3101 3102 3104 3106 3107 3109 3110 3111 3113 3114 3115 3116 3117 3119 3120 3121 3122 3123 3125 3126 3127 3128 3130 3131 3132 3133 3135
3021 3021 3020 3020 3020 3020 3021 3021 3020 3019 3018 3019 3020 3021 3021 3023 3023 3023 3025 3027 3028 3027 3026 3028 3029 3029 3028 3029 3030 3032 3034 3035 3036 3039 3041 3043 3045 3046 3048 3050 3052 3054 3056 3059 3061 3064 3067 3070 3072 3075 3077 3079 3082 3084 3087 3089 3092 3094 3096 3099 3100 3102 3104 3105 3106 3107 3108 3109 3110 3111 3112 3113 3114 3115 3116 3118 3119 3120 3121 3123 3124 3125 3126 3127 3128 3129